Regional Weather Roundup
Issued by NWS Charleston, WV

Home | Current Version | Previous Version | Graphics & Text | Print | Product List | Glossary On
Versions: 1 2 3 4 5 6 7 8 9 10 11 12 13 14 15 16 17 18 19 20 21 22 23 24 25 26 27 28 29 30 31 32 33 34 35 36 37 38 39 40 41 42 43 44 45 46 47 48 49 50
000
ASUS41 KRLX 220510
RWRRLX
West Virginia Regional Weather Roundup
National Weather Service Charleston WV
1200 AM EST SAT NOV 22 2014

Note: "fair" indicates few or no clouds below 12,000 feet with no
significant weather and/or obstructions to visibility.

WVZ003-220600-
Northern Panhandle of West Virginia

CITY           SKY/WX    TMP DP  RH WIND       PRES   REMARKS
WHEELING       PTCLDY    22   8  55 S6        30.41F
$$

WVZ009-220600-
Northwest West Virginia

CITY           SKY/WX    TMP DP  RH WIND       PRES   REMARKS
PARKERSBURG    CLEAR     17  11  77 CALM      30.47S
$$

WVZ006-220600-
Western West Virginia

CITY           SKY/WX    TMP DP  RH WIND       PRES   REMARKS
HUNTINGTON     CLEAR     23  14  68 CALM      30.42S
$$

WVZ015-220600-
West Central West Virginia

CITY           SKY/WX    TMP DP  RH WIND       PRES   REMARKS
CHARLESTON     CLEAR     22  14  71 CALM      30.43S
$$

WVZ022-031-220600-
North Central West Virginia

CITY           SKY/WX    TMP DP  RH WIND       PRES   REMARKS
CLARKSBURG     PTCLDY    19  12  74 CALM      30.43F
MORGANTOWN     CLEAR     22   7  52 CALM      30.43F
$$

WVZ025-035-042-045-220600-
Southern West Virginia

CITY           SKY/WX    TMP DP  RH WIND       PRES   REMARKS
BECKLEY        CLEAR     28   6  39 SE9       30.40R
LOGAN            N/A     32   9  37 CALM      30.40S
BLUEFIELD      CLEAR     29   1  30 CALM      30.39F
LEWISBURG      PTCLDY    18  11  73 CALM      30.44R
$$

WVZ047-220600-
Northern Mountains of West Virginia

CITY           SKY/WX    TMP DP  RH WIND       PRES   REMARKS
ELKINS         CLEAR     15  12  88 CALM      30.42F
$$

WVZ052-220600-
Eastern Panhandle of West Virginia

CITY           SKY/WX    TMP DP  RH WIND       PRES   REMARKS
MARTINSBURG    PTCLDY    19   9  65 CALM      30.51F
PETERSBURG     CLEAR     19  12  76 CALM      30.49S
$$



USA.gov is the U.S. government's official web portal to all federal, state and local government web resources and services.